Regional Weather Roundup
Issued by NWS

Home | Current Version | Previous Version | Graphics & Text | Print | Product List | Glossary On
Versions: 1 2 3 4 5 6 7 8 9 10 11 12 13 14 15 16 17 18 19 20 21 22 23 24 25 26 27 28 29 30 31 32 33 34 35 36 37 38 39 40 41 42 43 44 45 46 47 48 49 50
987
ASUS43 KTOP 080259
RWRKS

WEATHER ROUNDUP FOR KANSAS
NATIONAL WEATHER SERVICE GOODLAND KS
900 PM CST SUN FEB 07 2016

NOTE:  "FAIR" INDICATES FEW OR NO CLOUDS BELOW 12,000 FEET WITH NO
SIGNIFICANT WEATHER AND/OR OBSTRUCTIONS TO VISIBILITY.

KSZ001>006-013>018-027>032-041>047-080400-
NORTHWEST KANSAS

CITY           SKY/WX    TMP DP  RH WIND       PRES   REMARKS
GOODLAND       CLOUDY    30  17  58 NW18G28   30.31R WCI  18
HAYS           CLEAR     36  16  44 NW22      30.23R WCI  24
HILL CITY      CLEAR     33  21  61 NW17      30.23S WCI  22
RUSSELL        CLEAR     35  22  58 NW17      30.20R WCI  25
$$

KSZ061>065-074>080-084>089-080400-
SOUTHWEST KANSAS

CITY           SKY/WX    TMP DP  RH WIND       PRES   REMARKS
DODGE CITY     CLOUDY    35  15  44 NW21      30.30R WCI  24
ELKHART          N/A     30  11  45 NW8         N/A
GARDEN CITY    CLOUDY    36  15  42 NW16      30.31R WCI  26
GREAT BEND     CLEAR     34  19  55 NW16      30.23S WCI  23
LIBERAL        CLOUDY    36  12  38 NW13      30.36R WCI  27
$$

KSZ066>073-081>083-090>101-080400-
SOUTHEAST KANSAS

CITY           SKY/WX    TMP DP  RH WIND       PRES   REMARKS
CHANUTE        PTCLDY    43  19  38 NW16G24   30.11R
COFFEYVILLE    CLEAR     43  17  35 NW13      30.13R
HUTCHINSON     CLEAR     37  21  52 NW17      30.19R WCI  27
MEDICINE LODGE   N/A     40  18  41 NW14      30.25R WCI  32
NEWTON         CLEAR     36  19  51 W14       30.17S WCI  27
PARSONS        PTCLDY    42  17  36 NW12      30.13R
WICHITA INTL   CLEAR     40  21  46 NW18G26   30.18S WCI  31
WICHITA JABRA  CLEAR     39  21  48 W17G26    30.17S WCI  30
WINFIELD       CLEAR     39  22  50 NW15      30.19S WCI  31
$$

KSZ007>012-019>026-033>040-048>060-102>105-080400-
NORTHEAST KANSAS

CITY           SKY/WX    TMP DP  RH WIND       PRES   REMARKS
CONCORDIA      CLEAR     34  21  59 W12       30.12R WCI  25
EMPORIA        PTCLDY    37  21  52 NW10      30.11R WCI  30
LAWRENCE       CLOUDY    40  26  57 NW20G32   30.06F WCI  30
MANHATTAN      CLOUDY    40  21  46 W10       30.12R WCI  33
OLATHE IND     CLOUDY    39  25  57 NW16G30   30.05F WCI  30
OLATHE EXE     CLOUDY    39  24  55 NW18G26   30.03F WCI  30
SALINA         CLEAR     40  20  44 NW18      30.17R WCI  31
TOPEKA BILLARD CLOUDY    41  23  48 W14       30.07F
TOPEKA FORBES  CLOUDY    41  24  51 NW16G23   30.06F
$$




USA.gov is the U.S. government's official web portal to all federal, state and local government web resources and services.